Showing default

HULIANWANG DIGUI-18, 62978

Orbit data source: Space-Track

HULIANWANG DIGUI-18, 62978 is a payload satellite owned by Zhongguo Xingwang (CN) in LEO that was launched on Tue, 11 Feb 2025 UTC via a CHANG ZHENG 8A launch vehicle from the Wenchang Satellite Launch Center (WSC). Payload-class satellites include a variety of spacecraft equipped with specific instruments for various scientific and technological missions. These include communications satellites like Starlink; space stations such as the ISS; scientific satellites like the Hubble; Earth observation satellites from companies like Planet Labs, Umbra, and HawkEye 360; GPS; miniature CubeSats for education and research; and military/defense satellites.

Loading next visibility...
Identifier
62978, 2025-030H
Orbit
LEO
Country
Flag of CNCN / PRC
Related business
Manufacturer
CAST
Mission
Operational Civil Communications
Bus & Motor
XINGWANG C, Unknown motor
Mass
~700 kg wet, ~700 kg dry
Launch date (UTC)
2025-02-11 (1 year ago)
Launch vehicle
CHANG ZHENG 8A
Launch site
Wenchang Satellite Launch Center (WSC)
Object type
Payload
Rocket body
Debris
Shape & HBR
Box + 2 Pan, 2.1 m
Radar Cross Section
5.935 m², Large (>1 m²)

Expand to show TLE details & history
Last TLE update: 10 hours ago

TLE from 10 hours ago
0 HULIANWANG DIGUI-18
1 62978U 25030H   26106.98068881 -.00000097  00000-0  57704-4 0  9999
2 62978  50.0053  95.0359 0001229 313.6052  46.4718 13.29325966 57729
Epoch: 2026-04-16T23:32Z
TLE epoch observation values (Epoch: 2026-04-16T23:32:11.513Z)
Latitude
-0.00001°
Longitude
-103.13252°
Altitude
1,149.176 km
Speed
7.28 km/s
True Right ascension
06h 20m 08s
True Declination
0° 00' 00"
Sunlit
Object was in daylight at epoch
Visualization orbit readout
Latitude
Unknown
Longitude
Unknown
Altitude
Unknown
Speed
Unknown
Apparent Right ascension
Unknown
Apparent Declination
Unknown
Sunlit
N/A
Visualization observer readout
Local Sidereal Time
15:57:19
Azimuth
Unknown
Elevation
Unknown
Doppler factor
Unknown
Orbital elements
Apogee altitude
1,150.936 km
Perigee altitude
1,149.086 km
Semi-major axis
7,528.148 km
Eccentricity
0.00012
Inclination
50.0053°
RAAN
95.0359°
Arg. of periapsis
313.6052°
True anomaly
46.48201°
Mean anomaly
46.4718°
Eccentric anomaly
46.47691°
Mean motion
3.32285 °/min
Orbital period
108.34 mins
BSTAR
0.000057704
Loading maneuver chart data...
Computing Atmospheric mass density...
Loading historical data...
Loading historical data...
Loading historical data...
Loading historical data...
Loading historical data...
Loading historical data...
Loading historical data...

Documentation

Showing up to 5 results
|